Wind_Speed
11 10 9 7 6 6 5 4 4 4 3 3 3 3 3 2 2 2 3 3 3 3 3 4 4 5 5 6 6 7 7 7 7 7 6 6 6 6 7 6 6 6 5
12 11 9 8 7 7 6 5 5 4 3 3 3 3 3 2 2 2 2 2 2 2 3 3 3 4 5 6 6 7 7 8 8 8 8 7 7 7 7 8 8 8 7
13 12 10 9 8 7 6 5 5 5 4 4 4 3 2 2 2 2 2 2 1 1 2 2 3 3 3 4 5 7 7 7 8 8 9 9 8 8 8 8 9 9 9
15 13 12 10 9 8 7 6 5 5 5 4 4 3 3 2 2 2 2 2 2 2 2 2 3 3 3 3 3 4 6 6 7 8 8 9 9 8 8 9 10 10 10
15 14 13 11 10 9 8 7 6 6 5 5 5 4 3 3 3 2 3 2 2 2 1 1 1 2 2 2 3 4 4 5 6 6 7 7 8 8 9 9 9 10 10
16 15 14 13 11 10 9 8 7 6 6 6 5 4 3 3 3 3 3 3 2 1 1 1 1 1 1 2 2 3 4 4 4 5 5 6 7 8 8 8 9 9 9
16 16 14 13 12 11 10 9 8 7 6 6 6 5 5 4 4 4 3 3 2 2 2 2 1 1 1 2 3 3 4 4 4 4 5 6 7 8 9 9 9 9 10
17 16 16 15 13 12 11 10 9 8 7 7 6 6 5 5 5 5 4 4 3 3 3 3 3 3 3 3 3 4 4 4 4 4 5 6 6 7 8 9 10 10 11
18 18 17 16 14 13 12 11 10 9 9 8 8 7 6 6 6 6 6 5 5 5 5 5 5 5 5 5 5 5 5 5 6 6 6 7 7 7 8 8 9 10 11
18 19 18 17 16 15 13 12 11 11 11 10 9 9 8 8 7 7 7 7 7 7 7 7 7 7 8 8 8 8 8 8 8 8 8 9 9 10 10 10 10 11 12
19 19 18 18 17 16 15 14 13 13 12 12 11 11 10 10 9 9 8 8 9 9 9 9 9 10 10 10 10 10 11 11 11 11 11 12 12 12 12 13 13 14 14
20 20 19 19 19 18 17 16 15 14 14 13 13 12 12 12 11 11 10 10 10 11 11 11 12 12 12 13 13 13 13 14 14 14 15 15 15 16 16 17 17 17 18
20 20 20 19 19 19 18 17 16 16 16 15 15 15 14 14 14 14 13 13 13 13 14 14 14 14 15 15 16 16 16 17 17 17 18 18 19 19 20 21 21 22 22
19 20 20 20 20 20 19 18 18 18 17 17 17 17 17 17 17 16 16 16 16 16 16 16 17 17 17 18 18 19 19 20 20 21 21 22 23 23 24 24 25 26 26
20 20 20 20 21 21 21 20 19 19 18 18 18 18 19 19 19 19 18 18 19 19 19 19 20 20 20 21 21 22 23 23 23 24 25 26 26 27 28 28 28 29 29
20 19 21 21 22 22 22 21 21 20 20 20 20 20 20 20 21 21 21 21 22 22 22 22 22 22 23 24 25 26 26 27 27 28 29 29 30 31 31 32 32 33 33
21 21 21 22 22 23 23 22 22 21 21 21 21 21 21 22 22 23 24 24 24 25 25 25 26 26 27 27 28 29 29 30 31 31 32 33 34 34 35 36 36 37 37
20 21 22 22 22 23 23 23 23 22 22 22 23 23 23 24 24 25 25 26 26 26 27 27 28 28 29 30 31 32 32 33 34 35 36 36 37 38 39 39 40 41 41
20 21 22 22 22 21 22 22 23 23 23 24 24 25 24 24 25 26 27 27 28 29 29 29 30 31 31 32 34 35 36 37 38 38 39 40 41 42 42 43 43 44 44
18 20 21 21 21 21 21 22 22 23 24 25 25 25 25 26 26 27 28 29 29 30 31 32 33 33 34 35 36 37 39 40 40 41 42 43 44 45 46 46 47 47 48
17 19 20 21 21 21 21 22 22 23 24 26 27 27 27 27 28 29 30 31 31 31 32 34 35 35 36 38 39 40 41 42 43 44 45 47 47 48 49 49 50 51 52
17 18 19 20 21 21 22 22 23 24 25 25 26 27 27 27 29 30 31 32 34 34 34 36 37 38 39 40 41 42 43 45 47 47 49 50 51 52 52 53 54 55 56
18 19 19 20 20 21 22 23 24 24 25 25 27 28 29 30 32 32 32 33 35 36 37 38 40 40 41 42 44 45 46 48 49 51 51 52 53 54 55 56 57 58 58
21 21 21 22 23 23 23 24 24 25 25 26 28 29 30 31 32 32 33 34 35 37 38 41 42 42 43 45 46 48 48 49 51 52 53 54 56 57 58 59 59 60 61
21 22 22 23 24 25 25 26 27 28 28 28 28 30 31 32 33 33 35 36 37 38 40 41 42 44 45 46 48 49 51 52 53 55 56 57 58 59 59 60 61 62 62
22 23 24 24 24 25 26 26 27 29 29 29 30 31 32 33 34 35 37 39 40 41 42 43 44 46 47 49 50 51 52 54 55 56 57 58 59 60 60 61 62 62 63
Wind_Direction
193 191 191 191 189 184 180 179 180 182 180 182 185 182 180 185 190 202 213 224 232 237 253 255 253 257 262 255 246 243 244 246 248 247 252 259 264 267 264 261 261 263 266
199 197 197 199 195 191 188 187 187 185 181 177 179 186 187 182 179 195 204 218 239 252 259 266 269 268 266 259 250 249 252 255 254 251 255 261 266 269 272 266 261 262 265
204 203 201 200 200 200 198 194 197 193 188 182 178 179 183 178 177 189 198 206 232 255 266 273 284 293 283 267 260 257 259 261 260 256 255 258 264 268 271 271 264 261 263
207 208 207 203 203 205 205 203 201 198 195 189 185 187 194 190 185 192 200 212 225 259 268 285 291 296 294 287 277 277 274 270 274 264 262 261 261 266 273 277 272 266 267
206 207 208 206 207 210 211 209 202 198 197 194 195 197 202 208 203 209 214 222 227 251 269 285 290 302 298 295 298 297 293 287 281 272 270 268 268 269 274 280 281 274 274
206 206 206 206 207 208 210 209 204 201 202 202 203 202 206 209 212 215 213 215 224 242 260 284 298 305 326 317 322 318 320 314 298 286 280 277 278 279 283 286 289 285 282
209 208 207 206 207 207 209 209 205 205 205 205 207 208 213 213 216 215 212 220 229 245 260 274 284 286 306 329 323 319 322 323 315 300 291 289 286 285 285 285 288 288 284
210 211 209 208 208 210 210 211 209 210 209 210 214 215 216 217 221 220 225 233 242 247 252 259 260 265 275 292 308 312 311 314 314 304 300 297 294 290 289 287 288 290 289
212 213 211 210 212 212 213 214 216 216 215 218 221 224 226 225 227 232 240 246 251 253 258 261 262 268 274 281 286 294 299 299 300 299 297 299 300 298 298 293 292 294 293
217 216 215 214 215 217 219 221 221 221 221 223 227 230 232 233 233 238 246 253 256 257 260 263 265 268 273 277 281 283 287 290 292 292 293 292 292 291 294 293 293 292 292
221 219 220 218 218 219 223 224 224 224 225 229 232 233 234 237 238 243 251 256 259 260 260 263 268 271 274 275 277 278 280 283 285 287 288 290 291 292 290 289 289 288 288
222 222 222 221 221 222 225 226 226 228 231 232 234 235 237 241 243 248 252 257 260 263 265 268 270 273 275 276 277 278 279 280 282 283 285 286 287 288 288 287 286 285 285
224 223 222 223 224 224 226 228 230 232 233 235 237 239 242 244 249 253 256 259 262 265 267 269 273 275 275 275 277 278 280 280 280 281 281 282 283 284 285 285 284 283 283
225 223 223 225 226 226 228 231 233 234 236 238 240 243 246 248 252 255 259 262 265 267 268 270 273 274 275 276 277 278 280 281 281 280 280 280 281 282 283 283 283 283 282
225 226 227 228 230 230 231 232 234 237 240 241 243 245 247 251 254 257 260 263 266 268 270 271 272 274 274 276 278 279 280 280 281 281 280 281 282 283 283 282 282 282 282
228 231 229 229 231 232 232 233 236 238 242 244 246 248 250 252 256 258 261 265 268 269 271 272 273 275 276 276 277 279 280 281 282 282 282 282 283 283 283 282 282 282 282
232 232 231 232 233 233 234 235 237 239 243 246 248 250 253 256 259 261 263 267 269 271 273 274 275 276 276 277 278 279 281 281 282 282 282 283 283 283 284 283 282 282 282
234 234 235 234 234 235 238 239 240 243 246 249 252 253 256 258 261 263 265 267 269 271 273 275 277 278 278 279 279 280 281 282 283 283 283 283 284 284 284 284 283 282 282
235 235 236 236 238 239 241 243 245 247 249 251 254 255 257 261 263 265 267 269 270 271 273 275 277 277 279 280 281 281 282 283 284 284 284 284 284 284 284 284 284 283 283
238 238 236 237 240 242 244 246 247 249 251 252 254 256 259 263 266 268 269 271 272 274 275 276 277 278 280 281 282 283 283 283 284 285 285 284 285 285 285 285 284 284 284
244 241 239 241 242 243 245 246 248 251 254 255 257 258 261 265 267 269 271 272 273 274 276 277 278 279 280 281 282 282 283 283 284 285 285 286 286 286 286 285 285 285 284
247 245 243 244 244 244 246 248 249 253 255 257 258 261 264 268 269 270 273 274 274 275 276 278 279 280 281 282 282 283 284 284 285 285 286 287 288 288 288 287 286 285 284
247 247 246 247 248 249 250 252 253 256 259 262 263 264 266 269 270 272 275 276 277 278 279 280 282 283 283 284 284 285 285 285 285 286 287 287 288 288 288 287 287 286 285
249 251 250 250 251 253 255 256 258 261 264 266 267 268 270 272 274 277 278 277 279 281 282 283 284 285 286 286 286 287 287 287 287 288 288 289 289 289 289 288 288 288 287
255 255 256 255 256 258 259 260 262 263 265 267 269 271 272 274 276 278 279 281 282 283 284 286 286 287 288 289 289 289 289 289 289 290 290 290 290 290 290 290 289 289 288
258 261 259 259 261 261 260 261 263 264 266 269 271 274 276 279 281 281 282 283 284 285 286 286 287 288 290 290 290 290 290 290 291 292 292 292 292 292 291 291 291 290 288
Height
5888 5889 5890 5892 5892 5893 5894 5894 5895 5896 5896 5896 5897 5897 5898 5898 5898 5899 5899 5899 5900 5900 5900 5900 5900 5900 5900 5900 5900 5901 5901 5901 5902 5902 5902 5903 5903 5903 5903 5903 5903 5903 5903
5887 5888 5890 5891 5892 5892 5893 5894 5895 5895 5896 5896 5897 5897 5897 5898 5898 5898 5899 5899 5899 5899 5899 5899 5899 5899 5899 5899 5899 5899 5900 5900 5900 5901 5901 5901 5901 5901 5901 5901 5901 5902 5902
5885 5887 5889 5890 5891 5892 5893 5894 5894 5895 5895 5896 5896 5897 5897 5898 5898 5898 5898 5898 5899 5899 5899 5899 5899 5898 5898 5898 5898 5898 5898 5898 5899 5899 5899 5899 5899 5900 5900 5899 5899 5900 5900
5884 5885 5887 5889 5890 5891 5892 5893 5894 5894 5895 5896 5896 5897 5897 5897 5898 5898 5898 5898 5898 5898 5898 5898 5898 5898 5898 5897 5897 5897 5897 5897 5897 5897 5897 5897 5898 5898 5898 5898 5897 5898 5898
5882 5884 5885 5887 5889 5890 5891 5892 5893 5893 5894 5895 5896 5896 5897 5897 5897 5898 5898 5898 5898 5898 5898 5898 5898 5897 5897 5897 5897 5896 5896 5896 5895 5895 5896 5896 5896 5896 5896 5896 5896 5896 5896
5880 5882 5884 5885 5887 5889 5890 5891 5892 5893 5894 5894 5895 5896 5896 5897 5897 5897 5897 5898 5898 5898 5897 5897 5897 5897 5897 5897 5896 5896 5895 5895 5894 5894 5894 5894 5894 5894 5894 5894 5894 5894 5893
5878 5880 5882 5884 5886 5887 5889 5890 5891 5892 5893 5894 5895 5895 5896 5896 5897 5897 5897 5897 5897 5897 5897 5897 5897 5897 5897 5896 5896 5895 5895 5894 5894 5893 5893 5893 5893 5893 5892 5892 5892 5892 5891
5876 5878 5880 5882 5884 5886 5887 5888 5890 5891 5892 5893 5894 5895 5895 5896 5896 5896 5897 5897 5897 5897 5897 5897 5897 5897 5896 5896 5895 5895 5894 5893 5893 5892 5892 5892 5891 5891 5891 5890 5890 5890 5889
5873 5876 5878 5880 5882 5884 5886 5887 5888 5890 5891 5892 5893 5894 5894 5895 5895 5896 5896 5896 5896 5896 5896 5896 5896 5896 5895 5895 5894 5894 5893 5892 5892 5891 5891 5890 5890 5889 5888 5888 5888 5887 5887
5871 5873 5876 5878 5880 5882 5884 5885 5887 5888 5889 5890 5891 5892 5893 5893 5894 5894 5895 5895 5895 5894 5894 5894 5894 5894 5894 5893 5893 5892 5892 5891 5890 5890 5889 5888 5888 5887 5886 5886 5885 5885 5884
5868 5871 5873 5876 5878 5880 5882 5883 5885 5886 5887 5888 5889 5890 5891 5891 5892 5892 5893 5893 5893 5893 5893 5892 5892 5892 5891 5891 5891 5890 5889 5889 5888 5887 5887 5886 5886 5885 5884 5883 5883 5882 5881
5865 5868 5870 5873 5875 5877 5879 5881 5882 5884 5885 5886 5887 5888 5889 5889 5890 5890 5890 5890 5891 5891 5890 5890 5890 5889 5889 5888 5888 5887 5887 5886 5885 5885 5884 5883 5882 5882 5881 5880 5879 5878 5877
5862 5865 5867 5870 5872 5874 5876 5878 5879 5881 5882 5883 5884 5885 5886 5886 5887 5887 5888 5888 5888 5888 5887 5887 5887 5886 5885 5885 5884 5884 5883 5882 5881 5881 5880 5879 5878 5877 5876 5875 5874 5873 5872
5859 5861 5864 5866 5869 5871 5873 5875 5876 5878 5879 5880 5881 5882 5883 5883 5884 5884 5884 5884 5884 5884 5884 5883 5883 5882 5882 5881 5880 5879 5879 5878 5877 5876 5875 5874 5873 5872 5871 5870 5869 5867 5866
5856 5858 5860 5862 5865 5867 5869 5871 5872 5874 5875 5876 5877 5878 5879 5879 5880 5880 5880 5880 5881 5880 5880 5879 5878 5878 5877 5876 5875 5874 5873 5872 5871 5870 5869 5868 5867 5866 5864 5863 5862 5860 5859
5852 5854 5856 5858 5860 5863 5865 5867 5868 5870 5871 5872 5873 5874 5874 5875 5875 5875 5875 5875 5875 5875 5874 5874 5873 5872 5871 5871 5870 5868 5867 5866 5865 5864 5862 5861 5860 5858 5857 5855 5854 5852 5851
5848 5850 5852 5854 5856 5858 5860 5862 5864 5865 5867 5868 5869 5869 5870 5870 5870 5870 5870 5870 5870 5869 5869 5868 5867 5866 5865 5864 5863 5862 5860 5859 5858 5856 5855 5853 5851 5850 5848 5847 5845 5843 5842
5844 5846 5848 5850 5851 5854 5856 5857 5859 5860 5862 5863 5864 5865 5865 5865 5865 5865 5865 5864 5864 5863 5862 5861 5860 5859 5858 5857 5856 5854 5852 5850 5849 5848 5846 5844 5842 5840 5838 5837 5835 5833 5831
5840 5842 5844 5845 5847 5849 5851 5852 5854 5855 5856 5857 5858 5859 5859 5859 5859 5859 5858 5858 5857 5856 5855 5854 5853 5852 5851 5849 5847 5846 5844 5841 5839 5838 5836 5834 5832 5830 5828 5826 5823 5821 5819
5836 5838 5839 5841 5843 5845 5846 5848 5849 5850 5851 5851 5852 5852 5853 5853 5853 5852 5852 5851 5850 5849 5848 5847 5845 5844 5842 5841 5839 5837 5834 5832 5830 5827 5825 5823 5821 5818 5816 5813 5811 5809 5806
5833 5834 5836 5837 5839 5840 5841 5843 5844 5844 5845 5845 5846 5846 5846 5846 5846 5846 5845 5844 5843 5841 5840 5838 5837 5835 5834 5832 5829 5827 5824 5821 5819 5816 5813 5810 5808 5805 5803 5800 5798 5795 5792
5829 5830 5832 5833 5834 5835 5836 5838 5838 5839 5839 5839 5839 5839 5839 5839 5839 5838 5837 5836 5834 5833 5831 5830 5828 5826 5824 5821 5819 5816 5813 5810 5807 5805 5802 5798 5795 5791 5788 5785 5783 5780 5777
5825 5826 5827 5828 5829 5831 5832 5832 5833 5833 5833 5833 5833 5832 5832 5831 5830 5830 5828 5827 5825 5824 5822 5820 5818 5816 5813 5811 5808 5805 5801 5798 5795 5791 5788 5784 5780 5776 5773 5769 5766 5763 5759
5820 5821 5822 5823 5824 5825 5826 5826 5827 5827 5826 5826 5826 5825 5825 5824 5822 5821 5820 5818 5816 5815 5813 5810 5808 5805 5802 5799 5795 5792 5789 5785 5781 5778 5774 5770 5765 5761 5757 5752 5749 5745 5741
5816 5817 5817 5818 5819 5819 5819 5820 5820 5820 5820 5819 5819 5818 5817 5816 5814 5813 5811 5809 5807 5805 5803 5800 5797 5793 5790 5786 5783 5779 5775 5771 5767 5763 5759 5754 5749 5745 5740 5735 5730 5726 5722
5812 5812 5812 5812 5812 5812 5813 5813 5813 5813 5813 5812 5811 5810 5809 5807 5806 5804 5802 5800 5797 5794 5792 5788 5785 5781 5778 5774 5770 5765 5761 5756 5751 5747 5742 5738 5732 5727 5723 5717 5711 5706 5702